SL-14 DEB, 45293

Orbit data source: Space-Track

SL-14 DEB, 45293 is space debris in LEO originally from a launch on Thu, 15 Aug 1991 UTC launched from the Plesetsk Missile And Space Complex (PKMTR). Debris objects in space refer to the collection of defunct objects orbiting the Earth. Examples of debris include non-operational satellites, rocket bodies, and fragments generated from explosions, collisions, or faulty payload assembly.

Loading next visibility...
Identifier
45293, 1991-056AF
Orbit
LEO
Country
Flag of CISCIS
Related business
Manufacturer
Unknown
Mission
Spacecraft
Bus & Motor
Unknown
Mass
Unknown
Launch date (UTC)
1991-08-15 (35 years ago)
Launch vehicle
Unknown
Launch site
Plesetsk Missile And Space Complex (PKMTR)
Object type
Payload
Rocket body
Debris
Shape & HBR
Unknown shape, 0.1 m
Radar Cross Section
Small (<0.1 m²)

Expand to show TLE details & history
Last TLE update: 1 day ago

TLE from 1 day ago
0 SL-14 DEB
1 45293U 91056AF  26125.99323519  .00047047  00000-0  11697-1 0  9998
2 45293  82.5142 335.5141 0093443 236.7962 122.4250 14.48879281313204
Epoch: 2026-05-05T23:50Z
TLE epoch observation values (Epoch: 2026-05-05T23:50:15.520Z)
Latitude
0.00001°
Longitude
114.08932°
Altitude
768.359 km
Speed
7.451 km/s
True Right ascension
22h 22m 03s
True Declination
0° 00' 00"
Sunlit
Object was in daylight at epoch
Visualization orbit readout
Latitude
Unknown
Longitude
Unknown
Altitude
Unknown
Speed
Unknown
Apparent Right ascension
Unknown
Apparent Declination
Unknown
Sunlit
N/A
Visualization observer readout
Local Sidereal Time
09:05:25
Azimuth
Unknown
Elevation
Unknown
Doppler factor
Unknown
Orbital elements
Apogee altitude
792.762 km
Perigee altitude
659.989 km
Semi-major axis
7,104.513 km
Eccentricity
0.00934
Inclination
82.5142°
RAAN
335.5141°
Arg. of periapsis
236.7962°
True anomaly
123.32317°
Mean anomaly
122.425°
Eccentric anomaly
122.87465°
Mean motion
3.62445 °/min
Orbital period
99.33 mins
BSTAR
0.011697
Loading maneuver chart data...
Computing Atmospheric mass density...
Loading historical data...
Loading historical data...
Loading historical data...
Loading historical data...
Loading historical data...
Loading historical data...
Loading historical data...

Documentation

Showing up to 5 results
|